| time (UTC) | temp C | wind direction | speed KPH | gust KPH | rain 1hr cm | rain 24hr cm | rain mn cm | humidity % | barometer mb |
| 20260503172003 | 12 | 1 | 12.9 | 14.5 | 0.00 | 0.00 | 0.00 | 38 | 1014.0 |
| 20260503171503 | 11 | 2 | 12.9 | 24.1 | 0.00 | 0.00 | 0.00 | 38 | 1014.0 |
| 20260503171003 | 11 | 2 | 12.9 | 24.1 | 0.00 | 0.00 | 0.00 | 37 | 1013.9 |
| 20260503170503 | 12 | 2 | 12.9 | 24.1 | 0.00 | 0.00 | 0.00 | 39 | 1014.0 |
| 20260503151003 | 9 | 1 | 11.3 | 17.7 | 0.00 | 0.00 | 0.00 | 45 | 1014.7 |
| 20260503150503 | 9 | 2 | 11.3 | 16.1 | 0.00 | 0.00 | 0.00 | 48 | 1014.7 |
| 20260503131003 | 7 | 2 | 11.3 | 17.7 | 0.00 | 0.00 | 0.00 | 53 | 1014.5 |
| 20260503090504 | 6 | 1 | 4.8 | 8.0 | 0.00 | 0.00 | 0.00 | 63 | 1011.9 |
| 20260503081504 | 5 | 0 | 0.0 | 0.0 | 0.00 | 0.00 | 0.00 | 66 | 1011.7 |
| 20260503081003 | 6 | 1 | 0.0 | 1.6 | 0.00 | 0.00 | 0.00 | 65 | 1011.6 |
| 20260503080504 | 6 | 1 | 1.6 | 1.6 | 0.00 | 0.00 | 0.00 | 65 | 1011.6 |
| 20260503072004 | 6 | 1 | 1.6 | 3.2 | 0.00 | 0.00 | 0.00 | 62 | 1011.4 |
| 20260503071504 | 6 | 1 | 3.2 | 4.8 | 0.00 | 0.00 | 0.00 | 62 | 1011.5 |
| 20260503070503 | 7 | 1 | 1.6 | 8.0 | 0.00 | 0.00 | 0.00 | 61 | 1011.4 |
| 20260503055003 | 7 | 1 | 4.8 | 6.4 | 0.00 | 0.00 | 0.00 | 59 | 1011.8 |
| 20260503054503 | 7 | 2 | 4.8 | 6.4 | 0.00 | 0.00 | 0.00 | 59 | 1011.8 |
| 20260503054005 | 7 | 1 | 3.2 | 6.4 | 0.00 | 0.00 | 0.00 | 59 | 1011.8 |
| 20260503053503 | 7 | 2 | 3.2 | 6.4 | 0.00 | 0.00 | 0.00 | 59 | 1011.9 |
| 20260503053003 | 7 | 1 | 3.2 | 6.4 | 0.00 | 0.00 | 0.00 | 58 | 1012.0 |
| 20260503052503 | 8 | 2 | 3.2 | 6.4 | 0.00 | 0.00 | 0.00 | 58 | 1012.1 |
| 20260503052004 | 8 | 1 | 3.2 | 4.8 | 0.00 | 0.00 | 0.00 | 57 | 1012.2 |
| 20260503051003 | 8 | 1 | 6.4 | 8.0 | 0.00 | 0.00 | 0.00 | 56 | 1012.2 |
| 20260503050503 | 8 | 2 | 6.4 | 8.0 | 0.00 | 0.00 | 0.00 | 56 | 1012.2 |
| 20260503050004 | 8 | 2 | 4.8 | 8.0 | 0.00 | 0.00 | 0.00 | 56 | 1012.2 |
| 20260503045503 | 8 | 1 | 3.2 | 8.0 | 0.00 | 0.00 | 0.00 | 55 | 1012.3 |
| 20260503045003 | 8 | 1 | 4.8 | 8.0 | 0.00 | 0.00 | 0.00 | 55 | 1012.3 |
| 20260503044004 | 8 | 1 | 3.2 | 4.8 | 0.00 | 0.00 | 0.00 | 54 | 1012.4 |
| 20260503043503 | 8 | 1 | 4.8 | 9.7 | 0.00 | 0.00 | 0.00 | 54 | 1012.5 |
| 20260503042504 | 8 | 2 | 4.8 | 11.3 | 0.00 | 0.00 | 0.00 | 53 | 1012.5 |
| 20260503042003 | 8 | 1 | 4.8 | 11.3 | 0.00 | 0.00 | 0.00 | 53 | 1012.5 |
| 20260503041503 | 8 | 1 | 3.2 | 11.3 | 0.00 | 0.00 | 0.00 | 53 | 1012.5 |
| 20260503040504 | 9 | 1 | 4.8 | 4.8 | 0.00 | 0.00 | 0.00 | 51 | 1012.6 |
| 20260503040004 | 9 | 1 | 4.8 | 6.4 | 0.00 | 0.00 | 0.00 | 51 | 1012.6 |
| 20260503035504 | 9 | 2 | 4.8 | 6.4 | 0.00 | 0.00 | 0.00 | 51 | 1012.6 |
| 20260503035004 | 9 | 1 | 4.8 | 9.7 | 0.00 | 0.00 | 0.00 | 50 | 1012.6 |
| 20260503034503 | 9 | 2 | 4.8 | 9.7 | 0.00 | 0.00 | 0.00 | 50 | 1012.6 |
| 20260503034003 | 9 | 1 | 3.2 | 6.4 | 0.00 | 0.00 | 0.00 | 49 | 1012.5 |
| 20260503031003 | 10 | 1 | 4.8 | 11.3 | 0.00 | 0.00 | 0.00 | 48 | 1012.5 |
| 20260503030504 | 10 | 1 | 4.8 | 11.3 | 0.00 | 0.00 | 0.00 | 47 | 1012.6 |
| 20260503030004 | 10 | 1 | 4.8 | 8.0 | 0.00 | 0.00 | 0.00 | 47 | 1012.5 |
| 20260503025003 | 10 | 1 | 4.8 | 9.7 | 0.00 | 0.00 | 0.00 | 47 | 1012.5 |
| 20260503024503 | 10 | 1 | 6.4 | 9.7 | 0.00 | 0.00 | 0.00 | 46 | 1012.5 |
| 20260503023505 | 10 | 1 | 6.4 | 12.9 | 0.00 | 0.00 | 0.00 | 45 | 1012.7 |
| 20260503023004 | 10 | 1 | 6.4 | 12.9 | 0.00 | 0.00 | 0.00 | 45 | 1012.6 |
| 20260503022503 | 10 | 1 | 6.4 | 12.9 | 0.00 | 0.00 | 0.00 | 45 | 1012.6 |
| 20260503022003 | 11 | 1 | 6.4 | 9.7 | 0.00 | 0.00 | 0.00 | 44 | 1012.5 |
| 20260503021504 | 11 | 2 | 6.4 | 8.0 | 0.00 | 0.00 | 0.00 | 44 | 1012.6 |
| 20260503021003 | 11 | 1 | 6.4 | 9.7 | 0.00 | 0.00 | 0.00 | 43 | 1012.6 |
| 20260503020503 | 11 | 1 | 6.4 | 11.3 | 0.00 | 0.00 | 0.00 | 43 | 1012.6 |
| 20260503015504 | 11 | 2 | 6.4 | 11.3 | 0.00 | 0.00 | 0.00 | 43 | 1012.6 |
| 20260503015003 | 11 | 2 | 8.0 | 14.5 | 0.00 | 0.00 | 0.00 | 43 | 1012.6 |
| 20260503014504 | 11 | 2 | 8.0 | 14.5 | 0.00 | 0.00 | 0.00 | 43 | 1012.6 |
| 20260503014003 | 11 | 2 | 8.0 | 11.3 | 0.00 | 0.00 | 0.00 | 43 | 1012.5 |
| 20260503013504 | 11 | 1 | 8.0 | 9.7 | 0.00 | 0.00 | 0.00 | 43 | 1012.6 |
| 20260503013003 | 11 | 1 | 6.4 | 9.7 | 0.00 | 0.00 | 0.00 | 42 | 1012.5 |
| 20260503012503 | 11 | 1 | 6.4 | 9.7 | 0.00 | 0.00 | 0.00 | 43 | 1012.5 |
| 20260503012004 | 11 | 1 | 6.4 | 9.7 | 0.00 | 0.00 | 0.00 | 43 | 1012.4 |
| 20260503011504 | 11 | 1 | 4.8 | 8.0 | 0.00 | 0.00 | 0.00 | 43 | 1012.4 |
| 20260503011004 | 11 | 2 | 4.8 | 8.0 | 0.00 | 0.00 | 0.00 | 43 | 1012.4 |
| 20260503010503 | 11 | 1 | 4.8 | 6.4 | 0.00 | 0.00 | 0.00 | 43 | 1012.4 |
| 20260503010004 | 11 | 1 | 4.8 | 8.0 | 0.00 | 0.00 | 0.00 | 42 | 1012.4 |
| 20260503005503 | 12 | 2 | 6.4 | 11.3 | 0.00 | 0.00 | 0.00 | 41 | 1012.3 |
| 20260503004504 | 12 | 1 | 4.8 | 6.4 | 0.00 | 0.00 | 0.00 | 40 | 1012.3 |
| 20260503004004 | 12 | 2 | 6.4 | 8.0 | 0.00 | 0.00 | 0.00 | 40 | 1012.1 |
| 20260503003503 | 12 | 1 | 6.4 | 8.0 | 0.00 | 0.00 | 0.00 | 40 | 1012.1 |
| 20260503003003 | 12 | 1 | 6.4 | 11.3 | 0.00 | 0.00 | 0.00 | 40 | 1012.0 |
| 20260503002504 | 12 | 1 | 4.8 | 11.3 | 0.00 | 0.00 | 0.00 | 40 | 1012.0 |
| 20260503001003 | 12 | 1 | 4.8 | 11.3 | 0.00 | 0.00 | 0.00 | 38 | 1012.0 |
| 20260503000504 | 12 | 1 | 6.4 | 8.0 | 0.00 | 0.00 | 0.00 | 38 | 1011.9 |
| 20260503000004 | 12 | 1 | 4.8 | 8.0 | 0.00 | 0.00 | 0.00 | 38 | 1011.8 |
| 20260502235503 | 12 | 1 | 4.8 | 4.8 | 0.00 | 0.00 | 0.00 | 38 | 1011.8 |
| 20260502235003 | 12 | 1 | 4.8 | 9.7 | 0.00 | 0.00 | 0.00 | 39 | 1011.7 |
| 20260502234504 | 12 | 1 | 6.4 | 9.7 | 0.00 | 0.00 | 0.00 | 38 | 1011.7 |
| 20260502234004 | 12 | 1 | 6.4 | 9.7 | 0.00 | 0.00 | 0.00 | 38 | 1011.7 |
| 20260502233504 | 12 | 2 | 6.4 | 9.7 | 0.00 | 0.00 | 0.00 | 37 | 1011.6 |
| 20260502233004 | 12 | 1 | 6.4 | 11.3 | 0.00 | 0.00 | 0.00 | 37 | 1011.6 |
| 20260502232503 | 13 | 1 | 6.4 | 11.3 | 0.00 | 0.00 | 0.00 | 37 | 1011.5 |
| 20260502232003 | 13 | 2 | 6.4 | 9.7 | 0.00 | 0.00 | 0.00 | 37 | 1011.6 |
| 20260502231504 | 13 | 1 | 4.8 | 9.7 | 0.00 | 0.00 | 0.00 | 38 | 1011.5 |
| 20260502231003 | 13 | 1 | 4.8 | 9.7 | 0.00 | 0.00 | 0.00 | 38 | 1011.6 |
| 20260502230003 | 13 | 2 | 8.0 | 9.7 | 0.00 | 0.00 | 0.00 | 38 | 1011.8 |
| 20260502225504 | 13 | 1 | 8.0 | 12.9 | 0.00 | 0.00 | 0.00 | 38 | 1011.7 |
| 20260502225003 | 13 | 2 | 8.0 | 12.9 | 0.00 | 0.00 | 0.00 | 37 | 1011.6 |
| 20260502224503 | 13 | 1 | 8.0 | 12.9 | 0.00 | 0.00 | 0.00 | 37 | 1011.7 |
| 20260502224003 | 14 | 1 | 9.7 | 12.9 | 0.00 | 0.00 | 0.00 | 35 | 1011.6 |
| 20260502223504 | 14 | 2 | 9.7 | 11.3 | 0.00 | 0.00 | 0.00 | 34 | 1011.5 |
| 20260502222503 | 14 | 1 | 9.7 | 12.9 | 0.00 | 0.00 | 0.00 | 36 | 1011.4 |
| 20260502222003 | 15 | 1 | 8.0 | 9.7 | 0.00 | 0.00 | 0.00 | 35 | 1011.3 |
| 20260502221003 | 15 | 1 | 8.0 | 17.7 | 0.00 | 0.00 | 0.00 | 35 | 1011.3 |
| 20260502220503 | 15 | 2 | 6.4 | 17.7 | 0.00 | 0.00 | 0.00 | 34 | 1011.2 |
| 20260502220004 | 15 | 2 | 8.0 | 16.1 | 0.00 | 0.00 | 0.00 | 35 | 1011.2 |
| 20260502215504 | 14 | 2 | 9.7 | 17.7 | 0.00 | 0.00 | 0.00 | 35 | 1011.4 |
| 20260502215003 | 14 | 1 | 8.0 | 17.7 | 0.00 | 0.00 | 0.00 | 36 | 1011.4 |
| 20260502214503 | 15 | 1 | 8.0 | 17.7 | 0.00 | 0.00 | 0.00 | 37 | 1011.4 |
| 20260502214004 | 15 | 1 | 6.4 | 9.7 | 0.00 | 0.00 | 0.00 | 36 | 1011.4 |
| 20260502213503 | 15 | 1 | 8.0 | 14.5 | 0.00 | 0.00 | 0.00 | 36 | 1011.4 |
| 20260502212503 | 14 | 1 | 8.0 | 12.9 | 0.00 | 0.00 | 0.00 | 36 | 1011.4 |
| 20260502212004 | 14 | 2 | 6.4 | 12.9 | 0.00 | 0.00 | 0.00 | 37 | 1011.3 |
| 20260502211503 | 14 | 1 | 4.8 | 12.9 | 0.00 | 0.00 | 0.00 | 37 | 1011.2 |
| 20260502211004 | 13 | 1 | 6.4 | 12.9 | 0.00 | 0.00 | 0.00 | 37 | 1011.2 |
| 20260502210504 | 14 | 2 | 3.2 | 6.4 | 0.00 | 0.00 | 0.00 | 36 | 1011.1 |
| 20260502210004 | 14 | 2 | 3.2 | 8.0 | 0.00 | 0.00 | 0.00 | 38 | 1011.0 |
| 20260502205503 | 14 | 1 | 6.4 | 16.1 | 0.00 | 0.00 | 0.00 | 38 | 1011.1 |
| 20260502205004 | 14 | 2 | 8.0 | 16.1 | 0.00 | 0.00 | 0.00 | 37 | 1011.0 |
| 20260502204503 | 14 | 1 | 8.0 | 17.7 | 0.00 | 0.00 | 0.00 | 36 | 1011.0 |
| 20260502204003 | 15 | 1 | 8.0 | 17.7 | 0.00 | 0.00 | 0.00 | 37 | 1011.0 |
| 20260502203503 | 15 | 2 | 9.7 | 11.3 | 0.00 | 0.00 | 0.00 | 36 | 1011.0 |
| 20260502202503 | 15 | 1 | 9.7 | 20.9 | 0.00 | 0.00 | 0.00 | 36 | 1011.1 |
| 20260502202003 | 15 | 2 | 9.7 | 20.9 | 0.00 | 0.00 | 0.00 | 37 | 1011.2 |
| 20260502201503 | 15 | 1 | 8.0 | 20.9 | 0.00 | 0.00 | 0.00 | 37 | 1011.2 |
| 20260502201004 | 15 | 1 | 6.4 | 12.9 | 0.00 | 0.00 | 0.00 | 37 | 1011.3 |
| 20260502200504 | 14 | 1 | 6.4 | 14.5 | 0.00 | 0.00 | 0.00 | 38 | 1011.3 |
| 20260502200003 | 14 | 2 | 6.4 | 14.5 | 0.00 | 0.00 | 0.00 | 38 | 1011.4 |
| 20260502195503 | 14 | 2 | 6.4 | 11.3 | 0.00 | 0.00 | 0.00 | 41 | 1011.5 |
| 20260502194503 | 14 | 2 | 8.0 | 11.3 | 0.00 | 0.00 | 0.00 | 40 | 1011.6 |
| 20260502193503 | 13 | 2 | 6.4 | 12.9 | 0.00 | 0.00 | 0.00 | 41 | 1011.8 |
| 20260502193004 | 13 | 2 | 8.0 | 14.5 | 0.00 | 0.00 | 0.00 | 40 | 1011.8 |
| 20260502192003 | 14 | 327 | 6.4 | 8.0 | 0.00 | 0.00 | 0.00 | 39 | 1011.9 |
| 20260502191504 | 14 | 311 | 6.4 | 9.7 | 0.00 | 0.00 | 0.00 | 36 | 1012.1 |
| 20260502191004 | 14 | 328 | 6.4 | 9.7 | 0.00 | 0.00 | 0.00 | 38 | 1012.1 |
| 20260502190503 | 15 | 350 | 6.4 | 12.9 | 0.00 | 0.00 | 0.00 | 41 | 1012.2 |
| 20260502190004 | 15 | 1 | 4.8 | 12.9 | 0.00 | 0.00 | 0.00 | 42 | 1012.2 |
| 20260502185504 | 15 | 1 | 6.4 | 8.0 | 0.00 | 0.00 | 0.00 | 39 | 1012.4 |
| 20260502185003 | 15 | 1 | 8.0 | 11.3 | 0.00 | 0.00 | 0.00 | 40 | 1012.4 |
| 20260502184503 | 14 | 2 | 9.7 | 19.3 | 0.00 | 0.00 | 0.00 | 40 | 1012.5 |
| 20260502183004 | 14 | 332 | 4.8 | 8.0 | 0.00 | 0.00 | 0.00 | 39 | 1012.6 |
| 20260502182503 | 14 | 336 | 6.4 | 8.0 | 0.00 | 0.00 | 0.00 | 39 | 1012.6 |
| 20260502182003 | 14 | 338 | 6.4 | 8.0 | 0.00 | 0.00 | 0.00 | 41 | 1012.6 |
| 20260502181504 | 14 | 342 | 4.8 | 8.0 | 0.00 | 0.00 | 0.00 | 42 | 1012.7 |
| 20260502180503 | 14 | 334 | 8.0 | 17.7 | 0.00 | 0.00 | 0.00 | 38 | 1012.6 |